| time (UTC) | temp C | wind direction | speed KPH | gust KPH | rain 1hr cm | rain 24hr cm | rain mn cm | humidity % | barometer mb |
| 20260506124503 | 9 | 23 | 17.7 | 25.7 | 0.00 | 0.03 | 0.00 | 71 | 1013.8 |
| 20260506123003 | 9 | 15 | 17.7 | 22.5 | 0.00 | 0.03 | 0.00 | 67 | 1013.8 |
| 20260506121503 | 10 | 23 | 12.9 | 19.3 | 0.00 | 0.03 | 0.00 | 70 | 1013.9 |
| 20260506120003 | 10 | 20 | 17.7 | 22.5 | 0.00 | 0.03 | 0.00 | 74 | 1013.9 |
| 20260506114524 | 8 | 13 | 12.9 | 19.3 | 0.00 | 0.03 | 0.00 | 71 | 1014.0 |
| 20260506113024 | 8 | 22 | 8.0 | 16.1 | 0.00 | 0.03 | 0.00 | 69 | 1014.1 |
| 20260506111503 | 8 | 36 | 4.8 | 8.0 | 0.00 | 0.03 | 0.00 | 65 | 1014.1 |
| 20260506110004 | 8 | 41 | 6.4 | 12.9 | 0.00 | 0.03 | 0.00 | 68 | 1014.2 |
| 20260506104503 | 8 | 27 | 6.4 | 12.9 | 0.00 | 0.03 | 0.00 | 68 | 1014.2 |
| 20260506103003 | 7 | 6 | 4.8 | 8.0 | 0.00 | 0.03 | 0.00 | 71 | 1014.3 |
| 20260506101503 | 7 | 325 | 3.2 | 8.0 | 0.00 | 0.03 | 0.00 | 69 | 1014.4 |
| 20260506100004 | 7 | 259 | 6.4 | 14.5 | 0.00 | 0.03 | 0.00 | 63 | 1014.4 |
| 20260506094503 | 7 | 235 | 4.8 | 14.5 | 0.00 | 0.03 | 0.00 | 67 | 1014.7 |
| 20260506093004 | 7 | 255 | 4.8 | 14.5 | 0.00 | 0.03 | 0.00 | 63 | 1014.8 |
| 20260506091503 | 9 | 253 | 4.8 | 12.9 | 0.00 | 0.03 | 0.00 | 62 | 1014.9 |
| 20260506090024 | 8 | 225 | 4.8 | 8.0 | 0.00 | 0.05 | 0.00 | 65 | 1014.9 |
| 20260506084503 | 7 | 180 | 4.8 | 12.9 | 0.00 | 0.05 | 0.00 | 66 | 1015.0 |
| 20260506083003 | 8 | 170 | 6.4 | 14.5 | 0.00 | 0.05 | 0.00 | 68 | 1015.1 |
| 20260506081503 | 7 | 176 | 3.2 | 8.0 | 0.00 | 0.05 | 0.00 | 68 | 1015.0 |
| 20260506073024 | 6 | 202 | 6.4 | 14.5 | 0.00 | 0.05 | 0.00 | 74 | 1015.1 |
| 20260506071503 | 5 | 201 | 4.8 | 11.3 | 0.00 | 0.05 | 0.00 | 82 | 1015.1 |
| 20260506061503 | 5 | 233 | 1.6 | 11.3 | 0.00 | 0.05 | 0.00 | 86 | 1015.1 |
| 20260506044524 | 0 | 219 | 11.3 | 12.9 | 0.00 | 0.08 | 0.00 | 93 | 1015.5 |
| 20260506043024 | 0 | 222 | 9.7 | 11.3 | 0.00 | 0.08 | 0.00 | 93 | 1015.5 |
| 20260506041503 | 0 | 222 | 4.8 | 6.4 | 0.00 | 0.08 | 0.00 | 93 | 1015.5 |
| 20260506040003 | 0 | 219 | 3.2 | 11.3 | 0.00 | 0.08 | 0.00 | 93 | 1015.6 |
| 20260506034503 | 0 | 219 | 8.0 | 11.3 | 0.00 | 0.08 | 0.00 | 92 | 1015.7 |
| 20260506033024 | 1 | 216 | 11.3 | 12.9 | 0.00 | 0.08 | 0.00 | 93 | 1015.7 |
| 20260506031503 | 1 | 214 | 12.9 | 14.5 | 0.00 | 0.08 | 0.00 | 94 | 1015.7 |
| 20260506030003 | 0 | 215 | 11.3 | 14.5 | 0.00 | 0.08 | 0.00 | 95 | 1015.7 |
| 20260506024503 | 0 | 210 | 6.4 | 12.9 | 0.00 | 0.08 | 0.00 | 94 | 1015.7 |
| 20260506023003 | 0 | 200 | 4.8 | 12.9 | 0.00 | 0.08 | 0.00 | 94 | 1015.9 |
| 20260506021503 | 0 | 193 | 12.9 | 14.5 | 0.00 | 0.08 | 0.00 | 94 | 1015.9 |
| 20260506020005 | 0 | 194 | 8.0 | 11.3 | 0.00 | 0.08 | 0.00 | 94 | 1015.9 |
| 20260506014504 | 0 | 194 | 4.8 | 8.0 | 0.00 | 0.08 | 0.00 | 94 | 1016.1 |
| 20260506013004 | 0 | 165 | 6.4 | 8.0 | 0.00 | 0.08 | 0.00 | 94 | 1016.0 |
| 20260506011525 | 0 | 156 | 6.4 | 11.3 | 0.00 | 0.08 | 0.00 | 94 | 1016.2 |
| 20260506010005 | 0 | 160 | 8.0 | 12.9 | 0.00 | 0.08 | 0.00 | 94 | 1016.2 |
| 20260506004505 | 1 | 163 | 11.3 | 14.5 | 0.00 | 0.08 | 0.00 | 94 | 1016.2 |
| 20260506003025 | 0 | 153 | 12.9 | 14.5 | 0.00 | 0.08 | 0.00 | 94 | 1016.1 |
| 20260506001525 | 0 | 140 | 9.7 | 12.9 | 0.00 | 0.08 | 0.00 | 94 | 1016.4 |
| 20260506000004 | 0 | 145 | 3.2 | 11.3 | 0.00 | 0.08 | 0.00 | 93 | 1016.3 |
| 20260505234504 | 1 | 0 | 0.0 | 0.0 | 0.00 | 0.08 | 0.00 | 91 | 1016.4 |
| 20260505233004 | 1 | 240 | 1.6 | 4.8 | 0.00 | 0.08 | 0.00 | 92 | 1016.4 |
| 20260505231504 | 1 | 240 | 1.6 | 3.2 | 0.00 | 0.10 | 0.00 | 92 | 1016.5 |
| 20260505230005 | 2 | 0 | 0.0 | 0.0 | 0.00 | 0.13 | 0.00 | 92 | 1016.5 |
| 20260505224504 | 2 | 292 | 0.0 | 3.2 | 0.00 | 0.13 | 0.13 | 92 | 1016.8 |
| 20260505223004 | 3 | 263 | 3.2 | 12.9 | 0.00 | 0.15 | 0.13 | 93 | 1016.8 |
| 20260505221525 | 2 | 239 | 1.6 | 4.8 | 0.00 | 0.15 | 0.13 | 93 | 1016.8 |
| 20260505220004 | 2 | 239 | 1.6 | 4.8 | 0.00 | 0.15 | 0.13 | 91 | 1016.8 |
| 20260505214525 | 3 | 239 | 3.2 | 4.8 | 0.03 | 0.15 | 0.13 | 91 | 1016.8 |
| 20260505213004 | 3 | 234 | 3.2 | 4.8 | 0.03 | 0.15 | 0.13 | 91 | 1016.8 |
| 20260505211504 | 3 | 229 | 3.2 | 8.0 | 0.03 | 0.23 | 0.13 | 91 | 1016.6 |
| 20260505210004 | 3 | 299 | 4.8 | 16.1 | 0.03 | 0.25 | 0.13 | 89 | 1016.8 |
| 20260505204504 | 3 | 307 | 14.5 | 22.5 | 0.00 | 0.23 | 0.10 | 87 | 1017.0 |
| 20260505203025 | 3 | 299 | 0.0 | 6.4 | 0.00 | 0.28 | 0.10 | 89 | 1017.0 |
| 20260505201504 | 4 | 0 | 0.0 | 0.0 | 0.00 | 0.30 | 0.10 | 88 | 1017.1 |
| 20260505200004 | 4 | 32 | 0.0 | 3.2 | 0.00 | 0.30 | 0.10 | 85 | 1017.0 |
| 20260505194504 | 5 | 31 | 3.2 | 8.0 | 0.00 | 0.30 | 0.10 | 81 | 1016.9 |
| 20260505193004 | 5 | 36 | 8.0 | 12.9 | 0.00 | 0.30 | 0.10 | 81 | 1016.8 |
| 20260505191504 | 5 | 23 | 6.4 | 16.1 | 0.00 | 0.33 | 0.10 | 79 | 1016.6 |
| 20260505190025 | 5 | 12 | 4.8 | 8.0 | 0.00 | 0.38 | 0.10 | 78 | 1016.7 |
| 20260505184504 | 6 | 14 | 6.4 | 8.0 | 0.00 | 0.38 | 0.10 | 78 | 1016.8 |
| 20260505183025 | 6 | 12 | 4.8 | 8.0 | 0.00 | 0.38 | 0.10 | 77 | 1016.7 |
| 20260505181504 | 6 | 359 | 4.8 | 11.3 | 0.00 | 0.38 | 0.10 | 77 | 1016.8 |
| 20260505180025 | 6 | 349 | 6.4 | 11.3 | 0.00 | 0.38 | 0.10 | 75 | 1016.7 |
| 20260505174504 | 6 | 351 | 6.4 | 14.5 | 0.00 | 0.38 | 0.10 | 73 | 1016.7 |
| 20260505173004 | 6 | 21 | 8.0 | 16.1 | 0.00 | 0.38 | 0.10 | 73 | 1016.7 |
| 20260505171504 | 6 | 22 | 17.7 | 29.0 | 0.00 | 0.38 | 0.10 | 73 | 1016.9 |
| 20260505170004 | 7 | 13 | 9.7 | 19.3 | 0.00 | 0.38 | 0.10 | 68 | 1016.8 |
| 20260505164504 | 7 | 359 | 6.4 | 17.7 | 0.00 | 0.38 | 0.10 | 63 | 1016.7 |
| 20260505163004 | 8 | 4 | 11.3 | 19.3 | 0.00 | 0.38 | 0.10 | 64 | 1016.7 |
| 20260505161525 | 8 | 13 | 9.7 | 17.7 | 0.00 | 0.38 | 0.10 | 67 | 1016.7 |
| 20260505153004 | 8 | 4 | 11.3 | 20.9 | 0.00 | 0.38 | 0.10 | 59 | 1016.6 |
| 20260505151504 | 8 | 360 | 14.5 | 22.5 | 0.00 | 0.38 | 0.10 | 64 | 1016.8 |